Regional Weather Roundup
Issued by NWS

Home | Current Version | Previous Version | Text Only | Print | Product List | Glossary On
Versions: 1 2 3 4 5 6 7 8 9 10 11 12 13 14 15 16 17 18 19 20 21 22 23 24 25 26 27 28 29 30 31 32 33 34 35 36 37 38 39 40 41 42 43 44 45 46 47 48 49 50
000
ASUS43 KTOP 291908
RWRKS

WEATHER ROUNDUP FOR KANSAS
NATIONAL WEATHER SERVICE GOODLAND KS
200 PM CDT WED MAR 29 2017

NOTE:  "FAIR" INDICATES FEW OR NO CLOUDS BELOW 12,000 FEET WITH NO
SIGNIFICANT WEATHER AND/OR OBSTRUCTIONS TO VISIBILITY.

KSZ001>006-013>018-027>032-041>047-292000-
NORTHWEST KANSAS

CITY           SKY/WX    TMP DP  RH WIND       PRES   REMARKS
GOODLAND       CLOUDY    41  39  93 N23G33    29.93F
HAYS             N/A     44  41  89 N29G37    29.78F FOG
HILL CITY      LGT RAIN  45  42  89 N23G39    29.87F FOG
RUSSELL        HVY RAIN  45  43  93 N26G36    29.73F FOG
$$

KSZ061>065-074>080-084>089-292000-
SOUTHWEST KANSAS

CITY           SKY/WX    TMP DP  RH WIND       PRES   REMARKS
DODGE CITY     RAIN      42  40  92 N32G43    29.77F FOG
ELKHART          N/A     41  34  76 N20         N/A
GARDEN CITY    RAIN      41  38  89 N30       29.85R
GREAT BEND     RAIN      46  44  93 N26G40    29.70S
LIBERAL        CLOUDY    43  37  81 N28       29.87R
PRATT          LGT RAIN  43  43  99 N29G37    29.64F
$$

KSZ066>073-081>083-090>101-292000-
SOUTHEAST KANSAS

CITY           SKY/WX    TMP DP  RH WIND       PRES   REMARKS
CHANUTE        CLOUDY    72  59  63 S18G30    29.62F
COFFEYVILLE    CLOUDY    69  58  67 S17       29.63S
HUTCHINSON     LGT RAIN  50  48  93 N16G24    29.62F FOG
MEDICINE LODGE   N/A     48  46  93 N21G30    29.59F
NEWTON         LGT RAIN  54  53  97 N9        29.61F
PARSONS        CLOUDY    71  57  61 S15G26    29.64R
WICHITA INTL   CLOUDY    57  56  96 S14       29.60F
WICHITA JABRA  CLOUDY    58  56  93 S16G25    29.60S
WICHITA MCCONL CLOUDY    57  55  93 S12       29.60F
WINFIELD       PTSUNNY   61  54  77 S17       29.63F
$$

KSZ007>012-019>026-033>040-048>060-102>105-292000-
NORTHEAST KANSAS

CITY           SKY/WX    TMP DP  RH WIND       PRES   REMARKS
CONCORDIA      LGT RAIN  45  44  97 NE17G32   29.76S FOG
EMPORIA        LGT RAIN  61  61 100 E13       29.60F FOG
LAWRENCE       CLOUDY    56  54  93 NE13      29.69F
MANHATTAN      LGT RAIN  50  50 100 NE16      29.68F FOG
MARYSVILLE     LGT RAIN  45  43  93 NE24G30   29.75F
OLATHE IND     CLOUDY    59  55  87 E14       29.69F
OLATHE EXE     CLOUDY    57  56  96 E10       29.69F
SALINA         LGT RAIN  49  46  90 N21G32    29.69F FOG
TOPEKA BILLARD LGT RAIN  54  53  97 E18       29.67F FOG
TOPEKA FORBES  LGT RAIN  56  55  97 E13       29.65F FOG
$$



USA.gov is the U.S. government's official web portal to all federal, state and local government web resources and services.